GW6948 Weather Reports


Display with metric or nautical units.
time (UTC)temp
F
wind
direction
speed
MPH
gust
MPH
rain 1hr
in
rain 24hr
in
rain mn
in
humidity
%
barometer
mb
20260503054843 53 230 2.0 2.0 0.00 0.02 0.02 83 1016.4
20260503054339 53 198 0.0 0.0 0.00 0.02 0.02 83 1016.4
20260503053837 53 232 0.0 1.0 0.00 0.02 0.02 84 1016.4
20260503053335 53 239 2.0 2.0 0.00 0.02 0.02 84 1016.6
20260503052831 53 256 1.0 1.0 0.00 0.02 0.02 85 1016.5
20260503052328 53 203 1.0 1.0 0.00 0.02 0.02 85 1016.7
20260503051824 53 183 0.0 1.0 0.00 0.02 0.02 85 1016.9
20260503051321 53 211 1.0 1.0 0.00 0.02 0.02 84 1016.6
20260503050818 53 357 0.0 1.0 0.00 0.02 0.02 82 1016.7
20260503050314 53 279 3.0 5.0 0.00 0.02 0.02 81 1016.9
20260503045812 54 258 1.0 1.0 0.00 0.02 0.02 80 1016.7
20260503045309 54 340 1.0 2.0 0.00 0.02 0.02 79 1016.7
20260503044806 54 193 0.0 0.0 0.00 0.02 0.02 77 1017.1
20260503044303 55 276 2.0 3.0 0.00 0.02 0.02 75 1016.9
20260503043800 55 224 0.0 0.0 0.00 0.02 0.02 73 1017.0
20260503043257 55 229 1.0 1.0 0.00 0.02 0.02 72 1016.7
20260503042752 55 202 1.0 1.0 0.00 0.02 0.02 71 1016.7
20260503042249 55 252 1.0 2.0 0.00 0.02 0.02 72 1016.5
20260503041745 55 340 1.0 1.0 0.00 0.02 0.02 72 1016.5
20260503041243 56 184 0.0 1.0 0.00 0.02 0.02 72 1016.7
20260503040741 56 209 1.0 1.0 0.00 0.02 0.02 71 1016.5
20260503040238 56 217 2.0 2.0 0.00 0.02 0.02 70 1016.7
20260503035734 57 277 1.0 1.0 0.00 0.02 0.02 67 1016.5
20260503035232 57 66 1.0 1.0 0.00 0.02 0.02 66 1016.3
20260503034729 57 35 2.0 2.0 0.00 0.02 0.02 66 1016.6
20260503034226 57 69 1.0 2.0 0.00 0.02 0.02 66 1016.5
20260503033724 57 92 2.0 3.0 0.00 0.02 0.02 66 1016.5
20260503033221 57 182 1.0 2.0 0.00 0.02 0.02 64 1016.5
20260503032719 57 134 2.0 2.0 0.00 0.02 0.02 67 1016.6
20260503032218 57 150 2.0 2.0 0.00 0.02 0.02 66 1016.4
20260503031714 57 149 1.0 1.0 0.00 0.02 0.02 62 1016.5
20260503031213 57 252 0.0 0.0 0.00 0.02 0.02 62 1016.3
20260503030708 57 189 0.0 1.0 0.00 0.02 0.02 63 1016.3
20260503030205 57 174 0.0 1.0 0.00 0.02 0.02 63 1015.7
20260503025702 58 219 3.0 3.0 0.00 0.02 0.02 62 1015.6
20260503025200 57 233 1.0 1.0 0.00 0.02 0.02 63 1015.9
20260503024655 57 20 3.0 3.0 0.00 0.02 0.02 64 1015.5
20260503024153 57 0 1.0 1.0 0.00 0.02 0.02 64 1015.8
20260503023650 57 343 2.0 2.0 0.00 0.02 0.02 64 1015.3
20260503023147 57 254 0.0 0.0 0.00 0.02 0.02 67 1015.6
20260503022643 57 301 2.0 3.0 0.00 0.02 0.02 67 1015.5
20260503022142 57 257 2.0 2.0 0.00 0.02 0.02 66 1015.3
20260503021639 58 329 1.0 1.0 0.00 0.02 0.02 64 1015.4
20260503021136 58 331 5.0 9.0 0.00 0.02 0.02 60 1015.6
20260503020633 58 286 2.0 2.0 0.00 0.02 0.02 63 1015.4
20260503020131 58 319 1.0 1.0 0.00 0.02 0.02 62 1015.4
20260503015628 58 241 0.0 1.0 0.00 0.02 0.02 63 1015.4
20260503015125 58 334 2.0 3.0 0.00 0.02 0.02 63 1015.4
20260503014620 58 5 2.0 2.0 0.00 0.02 0.02 63 1015.4
20260503014118 58 327 4.0 6.0 0.00 0.02 0.02 64 1015.1
20260503013615 58 325 4.0 5.0 0.00 0.02 0.02 64 1015.1
20260503013113 59 355 2.0 5.0 0.00 0.02 0.02 65 1015.4
20260503012610 59 7 3.0 5.0 0.00 0.02 0.02 64 1015.4
20260503012107 59 347 3.0 5.0 0.00 0.02 0.02 62 1015.6
20260503011603 57 35 3.0 3.0 0.00 0.02 0.02 64 1015.8
20260503011101 57 310 3.0 3.0 0.00 0.02 0.02 73 1015.6
20260503010556 56 36 3.0 3.0 0.00 0.02 0.02 73 1015.8
20260503010054 56 50 1.0 2.0 0.07 0.02 0.02 79 1015.8
20260503005551 57 344 1.0 2.0 0.07 0.02 0.02 77 1015.9
20260503005049 57 202 1.0 1.0 0.05 0.01 0.01 73 1015.9
20260503004544 59 176 5.0 6.0 0.05 0.01 0.01 66 1015.8
20260503004043 65 158 8.0 9.0 0.00 0.00 0.00 46 1015.7
20260503003539 66 93 5.0 7.0 0.00 0.00 0.00 39 1015.4
20260503003037 66 359 4.0 6.0 0.00 0.00 0.00 39 1015.5
20260503002533 66 81 3.0 6.0 0.00 0.00 0.00 39 1014.5
20260503002030 66 55 2.0 2.0 0.00 0.00 0.00 38 1014.3
20260503001526 66 356 1.0 1.0 0.00 0.00 0.00 38 1014.1
20260503001024 67 14 5.0 7.0 0.00 0.00 0.00 38 1014.1
20260503000521 67 59 3.0 3.0 0.00 0.00 0.00 37 1014.0
20260503000018 67 17 3.0 5.0 0.00 0.00 0.00 37 1014.1
20260502235514 68 83 2.0 2.0 0.00 0.00 0.00 38 1014.1
20260502235013 68 42 3.0 3.0 0.00 0.00 0.00 36 1014.1
20260502234508 68 89 2.0 6.0 0.00 0.00 0.00 37 1014.2
20260502234006 68 88 2.0 2.0 0.00 0.00 0.00 36 1014.0
20260502233507 68 36 2.0 2.0 0.00 0.00 0.00 36 1013.8
20260502233004 68 340 4.0 8.0 0.00 0.00 0.00 36 1013.8
20260502232500 68 2 4.0 6.0 0.00 0.00 0.00 35 1013.8
20260502231957 69 27 2.0 3.0 0.00 0.00 0.00 35 1013.6
20260502231454 70 298 3.0 3.0 0.00 0.00 0.00 33 1013.9
20260502230952 69 349 1.0 2.0 0.00 0.00 0.00 34 1013.9
20260502230450 70 354 2.0 2.0 0.00 0.00 0.00 33 1013.6
20260502225948 71 333 3.0 3.0 0.00 0.00 0.00 31 1013.9
20260502225444 71 130 0.0 0.0 0.00 0.00 0.00 29 1013.9
20260502224941 71 210 3.0 3.0 0.00 0.00 0.00 29 1014.0
20260502224437 71 198 3.0 3.0 0.00 0.00 0.00 28 1014.3
20260502223934 71 193 2.0 2.0 0.00 0.00 0.00 29 1014.1
20260502223432 71 112 2.0 3.0 0.00 0.00 0.00 29 1014.2
20260502222930 71 196 2.0 3.0 0.00 0.00 0.00 30 1014.2
20260502222427 71 158 0.0 1.0 0.00 0.00 0.00 31 1014.0
20260502221922 71 225 3.0 3.0 0.00 0.00 0.00 30 1014.1
20260502221419 71 126 4.0 5.0 0.00 0.00 0.00 30 1014.2
20260502220916 70 178 2.0 3.0 0.00 0.00 0.00 31 1014.3
20260502220411 69 129 4.0 5.0 0.00 0.00 0.00 31 1014.3
20260502215908 69 139 1.0 1.0 0.00 0.00 0.00 32 1014.7
20260502215406 69 146 2.0 3.0 0.00 0.00 0.00 31 1014.6
20260502214903 69 226 3.0 5.0 0.00 0.00 0.00 31 1014.8
20260502214359 69 169 6.0 8.0 0.00 0.00 0.00 30 1014.7
20260502213857 69 174 4.0 6.0 0.00 0.00 0.00 29 1015.0
20260502213354 71 173 7.0 8.0 0.00 0.00 0.00 30 1014.9
20260502212853 71 178 3.0 3.0 0.00 0.00 0.00 30 1015.0
20260502212351 71 100 4.0 6.0 0.00 0.00 0.00 29 1015.1
20260502211847 71 171 3.0 5.0 0.00 0.00 0.00 30 1015.3
20260502211343 70 151 5.0 5.0 0.00 0.00 0.00 29 1015.1
20260502210841 70 200 3.0 3.0 0.00 0.00 0.00 30 1014.9
20260502210338 70 205 2.0 3.0 0.00 0.00 0.00 30 1015.5
20260502205835 70 150 6.0 6.0 0.00 0.00 0.00 29 1015.3
20260502205331 70 166 3.0 3.0 0.00 0.00 0.00 30 1015.0
20260502204828 70 145 6.0 7.0 0.00 0.00 0.00 29 1015.1
20260502204325 70 196 2.0 2.0 0.00 0.00 0.00 30 1015.1
20260502203822 70 122 1.0 1.0 0.00 0.00 0.00 31 1015.3
20260502203320 70 244 3.0 3.0 0.00 0.00 0.00 30 1015.6
20260502202820 70 148 1.0 1.0 0.00 0.00 0.00 30 1015.4
20260502202318 70 151 2.0 2.0 0.00 0.00 0.00 30 1015.4
20260502201816 70 139 3.0 5.0 0.00 0.00 0.00 30 1015.4
20260502201312 70 134 5.0 6.0 0.00 0.00 0.00 30 1015.4
20260502200808 70 174 3.0 3.0 0.00 0.00 0.00 30 1015.5
20260502200304 70 122 7.0 8.0 0.00 0.00 0.00 29 1015.4
20260502195803 71 179 3.0 5.0 0.00 0.00 0.00 30 1015.5
20260502195259 71 169 3.0 3.0 0.00 0.00 0.00 30 1015.5
20260502194755 71 154 5.0 6.0 0.00 0.00 0.00 29 1015.6
20260502194252 71 166 2.0 3.0 0.00 0.00 0.00 30 1015.5
20260502193748 71 133 7.0 13.0 0.00 0.00 0.00 29 1015.5
20260502193246 71 167 3.0 3.0 0.00 0.00 0.00 29 1015.5
20260502192746 71 158 4.0 5.0 0.00 0.00 0.00 29 1015.5
20260502192244 71 154 5.0 7.0 0.00 0.00 0.00 29 1015.7
20260502191740 71 182 4.0 5.0 0.00 0.00 0.00 29 1015.4
20260502191238 71 143 5.0 7.0 0.00 0.00 0.00 29 1015.6
20260502190735 71 80 5.0 6.0 0.00 0.00 0.00 28 1015.8
20260502190233 71 160 5.0 8.0 0.00 0.00 0.00 29 1015.9
20260502185732 71 114 5.0 6.0 0.00 0.00 0.00 29 1015.8
20260502185229 71 178 5.0 6.0 0.00 0.00 0.00 29 1015.9
20260502184726 71 183 7.0 10.0 0.00 0.00 0.00 28 1015.8
20260502184221 71 84 5.0 7.0 0.00 0.00 0.00 30 1015.9
20260502183718 71 145 4.0 6.0 0.00 0.00 0.00 29 1015.8
20260502183214 71 118 6.0 7.0 0.00 0.00 0.00 29 1016.2
20260502182709 71 116 3.0 7.0 0.00 0.00 0.00 30 1015.9
20260502182205 70 144 5.0 6.0 0.00 0.00 0.00 31 1016.3
20260502181703 70 69 1.0 2.0 0.00 0.00 0.00 30 1016.3
20260502181202 68 39 2.0 3.0 0.00 0.00 0.00 32 1016.2
20260502180658 68 93 2.0 2.0 0.00 0.00 0.00 32 1016.4
20260502180156 68 74 3.0 3.0 0.00 0.00 0.00 31 1016.3
20260502170120 65 131 0.0 1.0 0.00 0.00 0.00 36 1016.7
20260502164107 64 152 2.0 2.0 0.00 0.00 0.00 37 1016.6
20260502163603 65 204 2.0 2.0 0.00 0.00 0.00 36 1016.4
20260502163059 63 94 0.0 0.0 0.00 0.00 0.00 38 1016.5
20260502162556 63 88 1.0 1.0 0.00 0.00 0.00 38 1016.3
20260502162053 62 62 0.0 0.0 0.00 0.00 0.00 38 1017.0
20260502161550 62 161 2.0 2.0 0.00 0.00 0.00 38 1016.7
20260502161048 62 148 2.0 2.0 0.00 0.00 0.00 38 1016.7
20260502160545 62 40 2.0 2.0 0.00 0.00 0.00 39 1016.9
20260502151953 57 103 0.0 0.0 0.00 0.00 0.00 51 1016.7
20260502151449 56 222 1.0 1.0 0.00 0.00 0.00 54 1016.7
20260502150946 56 23 1.0 1.0 0.00 0.00 0.00 55 1016.7
20260502150444 54 75 0.0 1.0 0.00 0.00 0.00 57 1016.7
20260502130329 49 172 0.0 0.0 0.00 0.00 0.00 63 1016.1
20260502123814 50 227 1.0 1.0 0.00 0.00 0.00 58 1015.9
20260502123312 50 202 2.0 2.0 0.00 0.00 0.00 57 1015.9
20260502122808 51 207 2.0 2.0 0.00 0.00 0.00 58 1016.1
20260502122306 51 247 3.0 5.0 0.00 0.00 0.00 58 1015.6
20260502121803 51 262 2.0 2.0 0.00 0.00 0.00 58 1015.9
20260502121300 51 214 1.0 2.0 0.00 0.00 0.00 59 1015.7
20260502120757 51 283 1.0 2.0 0.00 0.00 0.00 59 1015.7
20260502120253 51 238 1.0 1.0 0.00 0.00 0.00 59 1015.7
20260502115751 51 272 2.0 2.0 0.00 0.00 0.00 59 1015.7
20260502115248 51 190 1.0 1.0 0.00 0.00 0.00 59 1015.8
20260502114743 51 184 0.0 0.0 0.00 0.00 0.00 59 1015.8
20260502114241 51 231 0.0 1.0 0.00 0.00 0.00 58 1015.7
20260502113738 51 180 1.0 2.0 0.00 0.00 0.00 58 1015.7
20260502113236 51 144 0.0 1.0 0.00 0.00 0.00 57 1015.9
20260502112734 52 242 1.0 1.0 0.00 0.00 0.00 57 1015.9
20260502112231 52 205 1.0 1.0 0.00 0.00 0.00 56 1015.8
20260502111728 52 222 3.0 3.0 0.00 0.00 0.00 57 1015.8
20260502111226 52 227 1.0 2.0 0.00 0.00 0.00 57 1015.9
20260502110723 52 193 2.0 2.0 0.00 0.00 0.00 56 1015.8
20260502110220 52 210 2.0 2.0 0.00 0.00 0.00 55 1015.6
20260502105718 52 204 1.0 1.0 0.00 0.00 0.00 55 1015.7
20260502105214 53 212 1.0 2.0 0.00 0.00 0.00 55 1015.9
20260502104712 53 235 3.0 5.0 0.00 0.00 0.00 54 1015.8
20260502104209 53 239 1.0 2.0 0.00 0.00 0.00 54 1015.9
20260502103707 53 252 1.0 1.0 0.00 0.00 0.00 53 1015.8
20260502103205 53 289 3.0 3.0 0.00 0.00 0.00 53 1015.7
20260502102701 53 214 1.0 1.0 0.00 0.00 0.00 53 1015.7
20260502102158 53 250 1.0 2.0 0.00 0.00 0.00 52 1015.7
20260502101656 53 196 2.0 2.0 0.00 0.00 0.00 53 1015.7
20260502101154 53 237 1.0 1.0 0.00 0.00 0.00 53 1015.7
20260502100652 53 218 0.0 1.0 0.00 0.00 0.00 53 1015.6
20260502100150 54 166 0.0 0.0 0.00 0.00 0.00 52 1015.6
20260502091124 55 243 3.0 3.0 0.00 0.00 0.00 53 1016.2
20260502090621 55 188 2.0 2.0 0.00 0.00 0.00 53 1015.9
20260502090118 55 190 1.0 2.0 0.00 0.00 0.00 53 1016.2
20260502071516 58 258 3.0 3.0 0.00 0.00 0.00 48 1016.6
20260502071014 58 170 0.0 1.0 0.00 0.00 0.00 48 1016.7
20260502070511 58 216 2.0 3.0 0.00 0.00 0.00 48 1016.9
20260502070009 58 196 2.0 2.0 0.00 0.00 0.00 48 1016.6
20260502065508 58 178 0.0 1.0 0.00 0.00 0.00 47 1016.9
20260502065005 58 237 0.0 1.0 0.00 0.00 0.00 46 1016.7
20260502064504 58 226 1.0 2.0 0.00 0.00 0.00 44 1016.7
20260502064000 58 239 2.0 2.0 0.00 0.00 0.00 43 1016.7
20260502063458 58 267 1.0 2.0 0.00 0.00 0.00 42 1016.6
20260502062955 59 215 1.0 2.0 0.00 0.00 0.00 42 1016.6
20260502062452 59 280 1.0 1.0 0.00 0.00 0.00 41 1016.6
20260502061951 59 273 1.0 1.0 0.00 0.00 0.00 39 1016.5
20260502061449 59 343 1.0 1.0 0.00 0.00 0.00 38 1016.9
20260502060944 59 210 1.0 1.0 0.00 0.00 0.00 37 1016.6
20260502060440 59 270 1.0 2.0 0.00 0.00 0.00 34 1016.9